Wind_Speed
67 56 52 47 42 43 43 44 48 58 67 79 91 101 109 125 135 135 132 125 124 119 112 111 109 109 99 98 99 89 29 79 94 81 77 81 79 79 79 78 83 80 79 76
63 52 48 45 42 40 39 38 42 46 56 67 77 87 102 114 134 136 133 136 131 123 120 119 112 109 104 97 102 116 119 99 103 109 91 82 85 84 81 80 81 78 76 74
62 51 48 45 42 37 36 35 38 39 48 51 66 70 86 104 118 131 136 137 135 129 129 122 117 111 104 100 104 115 126 122 109 99 94 90 87 82 84 86 80 77 75 75
61 52 48 46 41 36 33 35 35 40 43 44 55 62 72 91 109 121 138 140 136 134 133 129 119 114 107 98 106 108 111 108 107 99 97 92 90 88 85 82 79 78 79 81
58 52 49 46 43 40 37 34 35 38 40 41 52 53 69 82 92 110 124 141 143 134 133 126 117 112 107 101 101 103 100 99 98 95 90 94 95 95 90 87 83 83 82 81
52 55 49 43 41 39 36 35 37 36 39 25 52 48 58 72 79 97 112 128 142 136 130 124 118 112 105 102 102 98 93 88 80 82 88 91 95 94 91 90 89 88 88 87
53 52 48 43 41 42 38 37 37 33 32 25 49 43 53 66 72 85 100 114 130 134 127 127 122 118 109 104 103 96 86 78 71 80 86 97 92 91 92 92 91 91 92 91
48 46 47 44 42 39 40 41 38 28 25 31 49 36 50 59 60 71 86 102 116 130 129 128 125 120 112 108 105 96 82 73 49 58 70 72 71 80 88 88 90 90 92 93
46 42 43 44 40 42 38 37 34 28 27 34 42 38 48 50 56 66 76 91 104 125 135 129 126 121 110 110 104 96 84 77 82 84 86 82 86 86 84 88 87 89 88 87
46 34 44 42 42 38 33 31 29 28 29 31 35 33 42 45 51 64 75 84 97 115 135 132 128 123 110 110 102 91 85 81 81 86 88 85 86 81 79 82 82 80 83 83
45 39 41 38 34 30 28 30 25 24 25 23 25 28 36 41 45 55 64 72 87 105 129 130 126 125 112 107 90 85 82 83 86 86 86 88 85 80 76 76 75 74 72 74
44 37 35 31 30 26 24 23 18 20 20 17 23 30 32 38 38 50 61 69 81 99 113 126 127 114 100 87 74 70 78 79 83 83 85 86 87 87 85 75 75 73 67 69
37 34 28 26 26 24 19 18 15 13 14 14 21 22 29 34 35 50 56 64 75 85 103 120 121 103 96 88 64 24 67 86 86 85 82 77 84 80 82 79 76 73 60 62
32 29 24 22 21 18 16 12 7 7 4 9 14 17 31 33 39 44 49 61 68 88 98 107 109 105 89 80 62 76 100 91 85 78 67 74 82 85 78 75 75 68 59 60
30 20 21 19 19 12 14 16 11 7 3 7 11 19 30 32 40 47 56 57 71 79 65 73 110 107 96 76 68 78 107 93 93 85 69 65 75 75 65 60 65 59 54 59
25 17 13 12 15 16 19 22 21 12 4 6 14 21 27 34 43 47 48 61 60 66 67 76 100 93 70 62 72 64 72 90 94 87 72 64 62 62 58 56 53 52 58 59
18 13 5 10 15 16 18 23 20 12 2 11 16 21 29 35 44 49 57 56 63 60 63 75 91 88 89 78 72 48 51 59 56 54 59 64 60 55 53 51 54 49 51 55
11 5 5 7 12 20 19 18 13 10 2 6 16 20 26 33 39 44 50 61 73 60 73 75 83 84 93 75 64 60 65 63 57 58 59 57 59 58 57 50 47 47 51 54
1 1 9 10 13 14 19 19 21 16 13 23 28 24 23 27 32 42 63 76 73 76 79 78 79 80 75 81 77 80 78 68 61 56 51 53 55 55 52 48 48 52 52 55
2 9 10 14 13 21 26 29 33 18 27 37 39 45 47 47 55 66 70 79 80 84 85 88 80 83 59 67 67 64 64 64 58 61 56 57 56 51 48 48 50 50 54 58
10 9 11 12 12 25 37 51 49 44 44 50 56 58 33 53 61 61 64 76 83 89 96 97 82 82 71 71 68 68 67 63 63 65 62 65 55 53 53 54 55 55 57 62
7 9 15 14 18 41 44 56 54 59 51 47 50 62 58 54 56 49 60 74 82 89 92 91 90 88 74 71 77 73 72 77 82 75 74 73 64 59 52 55 58 56 58 64
11 13 22 28 35 33 33 47 49 44 44 45 50 53 42 60 58 52 63 72 79 72 78 85 87 90 90 71 71 72 71 72 74 76 73 69 68 61 61 59 56 59 65 70
15 26 34 46 39 42 38 35 41 34 29 28 29 36 39 51 54 56 67 74 82 87 88 94 89 96 100 91 79 73 72 72 69 66 65 65 63 62 61 62 65 67 68 69
22 27 39 37 36 34 33 28 32 32 27 30 34 35 30 50 52 71 65 67 79 84 87 90 97 89 83 89 93 86 77 71 68 67 64 63 63 61 63 66 66 66 67 66
23 27 30 31 32 32 28 26 27 33 32 27 33 37 40 46 54 58 63 71 74 79 86 88 87 82 80 78 75 76 73 67 64 65 62 60 62 63 63 63 62 62 64 65
Wind_Direction
317 311 306 300 290 280 271 260 247 244 240 238 234 231 228 225 224 221 221 223 226 228 228 229 229 228 219 215 213 208 234 230 230 240 242 243 245 246 247 248 251 253 256 259
318 315 315 309 295 288 278 270 257 249 243 238 236 231 227 225 224 220 220 221 223 225 226 228 228 229 223 217 212 212 225 240 242 246 246 246 247 248 249 249 252 254 257 260
321 320 319 309 296 292 285 273 265 253 248 242 237 232 228 225 225 220 218 221 222 221 225 226 227 229 226 220 220 219 224 232 238 243 247 246 247 249 249 251 253 257 259 261
320 320 319 313 306 302 291 281 269 257 249 243 239 228 227 225 222 221 217 218 219 220 224 224 225 227 229 225 224 225 227 229 234 240 243 246 248 248 250 254 257 259 261 261
318 320 320 313 309 304 297 292 282 265 251 241 248 227 233 225 223 220 219 216 217 216 222 225 226 227 228 229 231 229 228 231 234 239 244 248 250 252 254 256 258 259 262 265
322 318 315 308 306 302 298 292 286 277 258 246 245 232 230 229 222 220 219 217 217 216 217 222 225 227 229 231 233 234 231 233 238 243 247 250 252 253 256 258 260 262 263 268
319 314 310 307 305 304 302 292 284 277 267 240 246 234 226 230 222 220 218 218 216 215 215 218 220 224 224 226 232 234 232 232 237 246 246 244 247 251 254 256 260 263 266 268
318 313 309 305 305 302 300 295 290 283 262 239 241 230 226 230 224 221 218 216 214 211 214 217 219 220 222 223 226 230 232 228 226 225 234 237 244 252 256 259 260 263 265 269
318 316 305 307 307 301 294 292 289 281 259 241 241 230 231 225 221 217 217 213 213 208 211 214 217 219 218 224 226 227 229 227 222 230 245 250 255 256 258 259 261 264 268 269
321 321 306 310 307 301 301 292 288 279 268 250 239 236 226 227 219 214 213 211 207 208 209 211 213 218 218 222 225 228 230 231 232 236 243 248 251 255 257 259 260 263 266 269
323 324 310 310 303 301 299 295 287 281 272 257 242 231 228 230 218 212 214 212 208 207 208 209 211 216 216 222 226 230 232 234 237 241 246 249 254 257 256 260 262 264 268 272
324 322 314 310 312 313 309 299 294 291 281 257 239 228 215 224 212 210 210 207 206 205 206 208 211 214 219 224 228 237 239 246 246 244 247 254 258 258 258 257 265 269 270 273
325 321 316 315 313 311 302 305 300 309 281 246 232 227 212 218 202 203 203 202 201 202 203 207 211 212 213 215 216 229 227 243 243 245 246 249 252 250 256 258 262 264 268 274
328 325 321 311 310 304 307 309 306 301 270 245 231 212 209 204 196 195 195 198 191 200 201 205 206 210 212 205 172 194 225 220 240 230 240 245 254 254 254 258 260 263 270 277
330 328 309 307 318 328 330 341 340 332 257 230 218 203 202 192 187 190 189 184 193 194 186 188 200 206 206 194 192 199 210 213 233 232 242 244 253 258 250 251 258 265 273 276
327 324 302 321 339 334 356 353 350 334 295 206 193 196 187 186 184 184 180 180 184 183 190 194 195 192 180 192 206 220 217 222 224 235 245 247 244 246 249 255 262 267 273 276
325 309 297 337 345 350 0 349 349 349 204 181 173 184 177 179 183 176 174 174 166 164 182 184 187 181 176 169 181 188 215 222 226 234 239 241 242 245 251 256 262 265 271 274
320 258 301 348 2 359 2 3 13 20 69 139 151 164 167 176 171 168 158 158 164 160 180 180 184 187 191 198 198 214 225 233 236 238 239 240 246 248 253 257 262 264 270 276
301 334 30 37 27 37 43 52 60 60 97 120 121 122 135 144 147 151 149 150 153 171 172 167 168 169 187 196 212 217 221 225 224 231 234 238 243 249 254 256 261 268 272 276
112 84 60 44 28 83 90 86 82 102 113 111 110 123 120 134 137 141 149 152 156 168 163 161 166 173 171 191 208 208 206 216 225 234 239 244 246 249 252 257 261 268 274 278
117 103 67 45 57 116 103 105 101 102 106 111 128 123 115 125 134 149 152 158 161 166 169 174 172 175 194 206 209 218 216 223 228 235 239 245 248 252 256 261 268 271 275 274
163 94 94 83 101 123 119 118 109 108 115 119 131 136 153 146 138 145 153 160 164 167 169 177 185 194 192 204 214 215 218 226 232 236 242 248 248 252 255 265 270 270 268 270
163 121 106 113 115 123 137 132 121 118 120 127 123 139 150 152 149 148 152 152 159 158 169 177 187 197 198 204 205 210 216 224 230 235 239 246 252 256 264 265 263 265 268 269
166 130 124 127 122 116 122 117 110 109 119 132 139 153 163 165 157 151 159 168 169 175 179 183 190 199 205 214 216 221 225 229 232 236 242 249 257 260 261 260 262 264 264 267
171 150 144 144 148 142 121 128 123 118 138 142 138 143 156 172 166 155 171 175 179 177 184 191 196 201 205 211 219 224 229 233 238 245 250 253 253 252 254 256 259 262 267 271
188 160 147 150 156 143 141 131 146 143 145 151 150 140 141 170 170 170 169 179 185 189 191 195 200 204 207 213 219 224 228 234 238 244 246 243 245 247 251 255 260 265 268 274
Height
10542 10530 10518 10508 10501 10496 10492 10490 10492 10491 10493 10497 10509 10526 10547 10566 10578 10602 10622 10649 10659 10678 10703 10713 10728 10749 10790 10815 10838 10875 10846 10803 10817 10835 10853 10862 10867 10875 10883 10888 10881 10890 10895 10900
10523 10514 10503 10493 10486 10482 10478 10476 10474 10476 10475 10480 10486 10503 10514 10527 10537 10576 10603 10613 10633 10660 10673 10688 10710 10728 10772 10799 10820 10825 10790 10790 10807 10826 10842 10849 10856 10865 10873 10873 10873 10881 10887 10891
10504 10497 10489 10482 10474 10471 10464 10461 10459 10462 10459 10465 10467 10485 10492 10504 10518 10548 10572 10592 10614 10637 10646 10671 10692 10715 10748 10783 10789 10798 10800 10802 10809 10814 10828 10842 10848 10855 10859 10857 10867 10874 10879 10880
10487 10484 10477 10468 10461 10458 10453 10447 10448 10445 10447 10453 10449 10460 10470 10469 10487 10512 10535 10561 10591 10614 10625 10646 10677 10700 10726 10761 10763 10774 10789 10809 10810 10820 10830 10838 10839 10841 10847 10853 10862 10865 10866 10866
10476 10472 10463 10454 10449 10444 10440 10437 10433 10431 10434 10440 10431 10449 10444 10452 10473 10492 10509 10532 10557 10592 10611 10642 10672 10693 10714 10738 10749 10767 10786 10801 10812 10823 10833 10828 10829 10830 10837 10845 10851 10851 10853 10859
10470 10456 10451 10445 10439 10434 10429 10425 10421 10419 10420 10434 10417 10433 10432 10441 10460 10469 10490 10512 10543 10575 10601 10632 10663 10688 10709 10727 10730 10750 10778 10791 10807 10814 10813 10815 10814 10825 10829 10833 10837 10840 10843 10849
10458 10447 10439 10433 10430 10422 10417 10413 10410 10410 10410 10421 10407 10419 10421 10424 10440 10454 10474 10497 10532 10569 10596 10615 10641 10659 10691 10707 10715 10735 10767 10786 10795 10791 10790 10790 10803 10816 10818 10820 10827 10829 10831 10835
10450 10438 10427 10422 10418 10413 10406 10400 10397 10398 10399 10400 10388 10407 10406 10415 10434 10451 10465 10484 10514 10555 10577 10597 10621 10645 10675 10688 10705 10730 10754 10772 10788 10777 10771 10781 10791 10802 10805 10815 10814 10819 10820 10824
10440 10429 10417 10411 10408 10398 10397 10391 10387 10384 10385 10382 10382 10396 10399 10407 10419 10433 10449 10467 10498 10527 10549 10581 10610 10633 10669 10677 10700 10722 10745 10758 10770 10760 10762 10770 10786 10793 10799 10798 10803 10807 10810 10812
10427 10424 10405 10402 10395 10389 10384 10380 10377 10375 10373 10374 10381 10389 10392 10399 10408 10420 10428 10449 10478 10507 10530 10560 10594 10620 10660 10665 10694 10721 10738 10751 10757 10760 10765 10776 10776 10785 10785 10788 10791 10794 10798 10801
10416 10410 10399 10394 10386 10381 10377 10372 10370 10366 10367 10371 10376 10381 10385 10390 10401 10416 10428 10450 10469 10497 10516 10555 10585 10604 10651 10668 10701 10718 10735 10742 10749 10755 10763 10764 10773 10775 10775 10779 10783 10786 10788 10790
10404 10401 10392 10384 10379 10375 10370 10367 10366 10363 10363 10367 10369 10370 10380 10381 10394 10407 10417 10438 10460 10484 10522 10551 10570 10618 10652 10679 10706 10720 10727 10733 10738 10741 10743 10754 10761 10758 10761 10766 10772 10778 10777 10779
10400 10393 10385 10380 10375 10371 10367 10363 10361 10361 10362 10361 10361 10368 10374 10377 10388 10396 10413 10434 10456 10494 10517 10541 10575 10620 10643 10674 10709 10736 10685 10714 10717 10724 10734 10741 10747 10745 10751 10754 10761 10767 10765 10766
10395 10385 10380 10376 10372 10368 10363 10360 10358 10358 10358 10358 10358 10365 10367 10372 10382 10396 10414 10432 10462 10478 10491 10532 10577 10612 10632 10676 10720 10721 10707 10700 10702 10716 10719 10728 10734 10738 10743 10747 10752 10754 10752 10754
10388 10383 10376 10373 10369 10366 10363 10360 10357 10354 10355 10354 10355 10357 10362 10371 10381 10394 10405 10439 10448 10471 10509 10545 10573 10605 10638 10671 10689 10692 10685 10692 10698 10707 10710 10721 10728 10730 10731 10736 10741 10742 10742 10745
10384 10381 10376 10372 10370 10367 10362 10359 10354 10353 10351 10351 10352 10354 10360 10368 10378 10390 10419 10424 10450 10483 10526 10550 10577 10611 10649 10663 10674 10679 10692 10693 10694 10699 10710 10714 10715 10719 10724 10727 10728 10729 10735 10738
10383 10379 10376 10373 10372 10369 10364 10360 10355 10352 10350 10350 10351 10354 10358 10368 10380 10393 10409 10431 10466 10495 10531 10551 10578 10612 10636 10644 10660 10673 10674 10675 10686 10694 10700 10705 10708 10711 10714 10716 10720 10722 10726 10730
10382 10379 10376 10375 10373 10369 10364 10358 10355 10353 10353 10355 10355 10358 10363 10373 10387 10405 10423 10447 10476 10501 10534 10559 10588 10614 10641 10647 10661 10664 10663 10668 10677 10689 10692 10694 10699 10703 10706 10708 10712 10717 10719 10719
10382 10381 10379 10377 10374 10371 10366 10361 10359 10358 10358 10358 10360 10365 10374 10386 10397 10416 10432 10453 10482 10510 10537 10563 10585 10612 10629 10644 10639 10647 10656 10663 10673 10679 10683 10686 10691 10695 10698 10703 10707 10709 10710 10708
10384 10383 10383 10379 10376 10375 10369 10368 10368 10365 10365 10368 10368 10372 10377 10392 10403 10420 10444 10462 10485 10514 10545 10572 10588 10608 10615 10622 10628 10639 10646 10653 10661 10671 10675 10679 10684 10689 10692 10696 10700 10700 10699 10697
10387 10387 10386 10383 10380 10379 10376 10375 10377 10376 10376 10382 10382 10378 10392 10414 10427 10442 10450 10468 10495 10526 10550 10569 10587 10600 10602 10613 10622 10633 10641 10646 10656 10663 10667 10675 10678 10680 10685 10689 10690 10690 10690 10688
10392 10392 10390 10387 10385 10386 10384 10382 10383 10388 10392 10392 10398 10394 10403 10426 10433 10455 10473 10482 10504 10531 10553 10570 10584 10588 10596 10605 10616 10625 10636 10646 10650 10657 10663 10666 10670 10677 10679 10681 10682 10679 10682 10681
10396 10396 10395 10392 10393 10392 10394 10390 10386 10394 10404 10410 10414 10422 10426 10434 10448 10464 10488 10504 10519 10533 10555 10569 10575 10575 10592 10600 10614 10623 10631 10638 10647 10653 10656 10663 10668 10670 10673 10671 10668 10671 10674 10674
10398 10399 10400 10401 10404 10405 10405 10402 10397 10404 10413 10420 10426 10436 10446 10454 10463 10476 10492 10510 10525 10535 10550 10561 10571 10580 10588 10597 10609 10619 10628 10635 10642 10648 10654 10660 10661 10660 10660 10659 10662 10664 10665 10665
10400 10402 10403 10404 10406 10408 10410 10413 10412 10413 10419 10425 10433 10439 10451 10465 10473 10480 10495 10516 10531 10541 10550 10560 10569 10579 10593 10605 10611 10617 10625 10631 10638 10645 10648 10648 10651 10651 10649 10655 10657 10655 10655 10652
10401 10403 10405 10407 10410 10412 10417 10419 10421 10422 10427 10433 10440 10446 10453 10470 10483 10492 10502 10517 10530 10542 10553 10563 10574 10583 10593 10601 10608 10616 10622 10629 10632 10637 10640 10642 10641 10642 10646 10648 10646 10643 10639 10636